Location: Miles
(41.4492°N, 81.6087°W)
Time: 06:45:44
(UTC+00:00)

S-56A Canister/Altair - Visible Passes

Search period start: 19 September 2024 00:00
Search period end: 29 September 2024 00:00
Orbit: 637 x 2487 km, 38.9° (Epoch: 18 September)

Date Brightness Start Highest point End Pass type
(mag) Time Alt. Az. Time Alt. Az. Time Alt. Az.
19 Sep 8.3 01:44:44 10° W 01:50:54 70° S 01:52:49 53° SE visible
19 Sep 10.2 03:48:00 10° W 03:50:07 21° W 03:50:07 21° W visible
20 Sep 8.2 01:11:11 10° W 01:16:57 71° S 01:20:26 35° ESE visible
20 Sep 9.7 03:14:19 10° W 03:17:44 31° WSW 03:17:44 31° WSW visible
21 Sep 8.1 00:37:38 10° W 00:43:02 71° S 00:48:04 22° ESE visible
21 Sep 9.1 02:40:40 10° W 02:45:23 43° SW 02:45:23 43° SW visible
22 Sep 7.9 00:04:05 10° W 00:09:10 71° S 00:15:44 13° E visible
22 Sep 8.7 02:07:03 10° W 02:13:03 52° SSW 02:13:03 52° SSW visible
23 Sep 8.5 01:33:28 10° W 01:39:08 54° SSW 01:40:44 46° SSE visible
23 Sep 10.5 03:37:16 10° W 03:38:02 13° WSW 03:38:02 13° WSW visible
24 Sep 8.3 00:59:54 10° W 01:05:13 56° SSW 01:08:27 32° SE visible
24 Sep 10.1 03:03:28 10° W 03:05:46 20° WSW 03:05:46 20° WSW visible
25 Sep 8.1 00:26:20 10° W 00:31:21 58° SSW 00:36:13 20° ESE visible
25 Sep 9.6 02:29:44 10° W 02:33:32 27° SW 02:33:32 27° SW visible
25 Sep 8.0 23:52:44 10° W 23:57:32 60° S 00:04:01 10° ESE visible
26 Sep 9.2 01:56:03 10° W 02:01:13 31° SSW 02:01:20 31° SSW visible
27 Sep 9.0 01:22:23 10° W 01:27:19 33° SSW 01:29:10 29° S visible
28 Sep 8.9 00:48:44 10° W 00:53:26 35° SSW 00:57:05 21° SSE visible
28 Sep 10.5 02:54:24 10° WSW 02:54:24 10° WSW 02:54:24 10° WSW visible
